Location: Des Moines
(41.6010°N, 93.6090°W)
Time: 04:46:37
(UTC-06:00)

Envisat - Visible Passes

Search period start: 28 November 2020 00:00
Search period end: 08 December 2020 00:00
Orbit: 764 x 766 km, 98.1° (Epoch: 28 November)

Date Brightness Start Highest point End Pass type
(mag) Time Alt. Az. Time Alt. Az. Time Alt. Az.
28 Nov 3.0 06:13:25 10° NNE 06:18:32 88° ESE 06:23:36 10° SSW visible
28 Nov 3.4 17:28:00 10° S 17:33:04 71° WSW 17:38:09 10° NNW visible
29 Nov 4.5 05:36:52 10° NNE 05:41:38 39° E 05:46:22 10° SSE visible
29 Nov 5.9 18:32:10 10° SW 18:35:38 18° W 18:39:06 10° NW visible
30 Nov 5.8 05:01:08 10° NE 05:04:33 18° E 05:07:57 10° SE visible
30 Nov 3.1 06:38:56 10° N 06:43:53 54° WNW 06:48:48 10° SSW visible
30 Nov 4.5 17:53:48 10° SSW 17:58:33 40° W 18:03:20 10° NNW visible
01 Dec 3.3 06:02:03 10° NNE 06:07:08 70° ESE 06:12:11 10° S visible
01 Dec 3.1 17:16:35 10° SSE 17:21:40 89° WSW 17:26:47 10° NNW visible
02 Dec 4.9 05:25:41 10° NNE 05:30:11 31° E 05:34:39 10° SSE visible
02 Dec 5.5 18:20:09 10° SW 18:24:08 23° W 18:28:10 10° NW visible
03 Dec 6.1 04:50:25 10° ENE 04:53:02 14° E 04:55:38 10° ESE visible
03 Dec 3.0 06:27:28 10° N 06:32:32 68° WNW 06:37:33 10° SSW visible
03 Dec 4.0 17:42:12 10° S 17:47:07 51° W 17:52:05 10° NNW visible
04 Dec 3.8 05:50:44 10° NNE 05:55:43 54° E 06:00:41 10° S visible
04 Dec 6.2 18:47:31 10° WSW 18:49:50 13° W 18:52:09 10° WNW visible
05 Dec 5.3 05:14:35 10° NE 05:18:43 25° E 05:22:50 10° SSE visible
05 Dec 3.5 06:53:07 10° N 06:57:50 39° WNW 07:02:31 10° SW visible
05 Dec 5.1 18:08:17 10° SSW 18:12:40 29° W 18:17:05 10° NW visible
06 Dec 6.3 04:40:25 10° ENE 04:41:30 11° E 04:42:35 10° E visible
06 Dec 3.0 06:16:03 10° NNE 06:21:10 86° WNW 06:26:14 10° SSW visible
06 Dec 3.5 17:30:41 10° S 17:35:42 65° WSW 17:40:47 10° NNW visible
07 Dec 4.3 05:39:27 10° NNE 05:44:17 43° E 05:49:06 10° S visible
07 Dec 6.0 18:35:06 10° SW 18:38:19 17° W 18:41:33 10° NW visible
